Location: Newark
(34.9500°N, 139.9667°E)
Time: 05:30:59
(UTC+00:00)

Vanguard 1 Rocket - Pass Details

Date: 08 December 2019
Orbit: 650 x 4226 km, 34.3° (Epoch: 26 January)

Event Time Altitude Azimuth Distance (km) Brightness Sun altitude
Enters shadow 14:33:19 - 268° (W) 6,327 11.7 -77.8°
Rises 14:33:28 0° 268° (W) 6,280 - -77.8°
Reaches altitude 10° 14:38:25 10° 268° (W) 4,679 - -77.7°
Maximum altitude 14:49:48 87° 182° (S) 1,258 - -77.2°
Drops below altitude 10° 14:55:45 10° 93° (E) 2,550 - -76.7°
Sets 14:57:43 0° 93° (E) 3,300 - -76.5°
